Drummond Island, MI

1:04 PM EST on December 11, 2017 (GMT -0500)
Drummond Island

Weather History for KDRM - October, 2012

Change the Weather History Date:

Tuesday, October 2, 2012

  Actual Average (KCIU) Record (KCIU)
Temperature  
Mean Temperature 50 °F -  
Max Temperature 60 °F 58 °F 75 °F (2005)
Min Temperature 41 °F 38 °F 28 °F (1981)
Degree Days  
Heating Degree Days 14    
Moisture  
Dew Point 49 °F    
Average Humidity 92    
Maximum Humidity 100    
Minimum Humidity 77    
Precipitation  
Precipitation 0.00 in - - ()
Sea Level Pressure  
Sea Level Pressure 29.91 in    
Wind  
Wind Speed 1 mph (NNW)    
Max Wind Speed 7 mph    
Max Gust Speed -    
Visibility 8 miles    
Events      
Averages and records for this station are not official NWS values.
T = Trace of Precipitation, MM = Missing Value Source: NWS Daily Summary

Daily Weather History Graph

Daily Weather History Graph

Search for Another Location

Airport or City:

Trip Planner

Search our weather history database for the weather conditions in past years. The results will help you decide how hot, cold, wet, or windy it might be!

Date:

Astronomy

Oct. 02, 2012 Rise Set
Actual Time 7:35 AM EDT 7:12 PM EDT
Civil Twilight 7:05 AM EDT 7:41 PM EDT
Nautical Twilight 6:30 AM EDT 8:16 PM EDT
Astronomical Twilight 5:55 AM EDT 8:51 PM EDT
Moon 8:12 PM EDT (10/2) 10:12 AM EDT (10/2)
Length of Visible Light 12h 36m
Length of Day
11h 36m
Waning Gibbous, 94% of the Moon is Illuminated
Oct 2
Waning Gibbous
Oct 8
Last Quarter
Oct 15
New
Oct 21
First Quarter
Oct 29
Full

Hourly Weather History & Observations

Time (EDT) Temp. Dew Point Humidity Pressure Visibility Wind Dir Wind Speed Gust Speed Precip Events Conditions
12:15 AM 45.0 °F 45.0 °F 100% 29.88 in 2.0 mi Calm Calm - N/A   Clear
12:35 AM 45.0 °F 45.0 °F 100% 29.87 in 1.8 mi Calm Calm - N/A   Mist
12:55 AM 45.5 °F 45.5 °F 100% 29.87 in 1.8 mi Calm Calm - N/A   Mist
1:15 AM 42.6 °F 42.6 °F 100% 29.87 in 0.8 mi Calm Calm - N/A   Mist
1:35 AM 44.1 °F 44.1 °F 100% 29.86 in 1.2 mi Calm Calm - N/A   Mist
1:56 AM 42.6 °F 42.6 °F 100% 29.86 in - Calm Calm - N/A   Unknown
2:15 AM 41.9 °F 41.9 °F 100% 29.85 in 7.0 mi Calm Calm - N/A   Clear
2:55 AM 43.0 °F 43.0 °F 100% 29.86 in 4.0 mi Calm Calm - N/A   Clear
3:15 AM 42.3 °F 42.3 °F 100% 29.86 in 7.0 mi Calm Calm - N/A   Clear
3:36 AM 41.0 °F 41.0 °F 100% 29.85 in 7.0 mi Calm Calm - N/A   Clear
3:55 AM 41.5 °F 41.5 °F 100% 29.85 in 3.0 mi Calm Calm - N/A   Clear
4:15 AM 41.5 °F 41.5 °F 100% 29.85 in 10.0 mi Calm Calm - N/A   Clear
4:35 AM 43.2 °F 43.2 °F 100% 29.85 in 10.0 mi Calm Calm - N/A   Clear
4:55 AM 42.4 °F 42.4 °F 100% 29.85 in 10.0 mi Calm Calm - N/A   Clear
5:16 AM 43.0 °F 43.0 °F 100% 29.85 in 10.0 mi Calm Calm - N/A   Clear
5:35 AM 42.8 °F 42.8 °F 100% 29.84 in 10.0 mi Calm Calm - N/A   Clear
5:55 AM 42.8 °F 42.8 °F 100% 29.86 in 10.0 mi Calm Calm - N/A   Clear
6:35 AM 44.1 °F 44.1 °F 100% 29.87 in 10.0 mi Calm Calm - N/A   Clear
6:55 AM 43.2 °F 43.2 °F 100% 29.87 in 10.0 mi Calm Calm - N/A   Clear
7:15 AM 43.7 °F 43.7 °F 100% 29.88 in 10.0 mi Calm Calm - N/A   Clear
7:35 AM 45.0 °F 45.0 °F 100% 29.88 in 10.0 mi Calm Calm - N/A   Clear
7:55 AM 44.4 °F 44.4 °F 100% 29.89 in 10.0 mi Calm Calm - N/A   Clear
8:15 AM 45.3 °F 45.3 °F 100% 29.90 in 10.0 mi Calm Calm - N/A   Scattered Clouds
8:35 AM 46.9 °F 46.9 °F 100% 29.90 in 10.0 mi Calm Calm - N/A   Overcast
8:55 AM 48.2 °F 48.2 °F 100% 29.90 in 10.0 mi Calm Calm - N/A   Overcast
9:15 AM 48.6 °F 48.6 °F 100% 29.91 in 10.0 mi Calm Calm - N/A   Overcast
9:36 AM 51.6 °F 51.6 °F 100% 29.92 in 10.0 mi Calm Calm - N/A   Overcast
9:55 AM 53.6 °F 53.6 °F 100% 29.93 in 7.0 mi NW 3.5 mph - N/A   Overcast
10:15 AM 53.8 °F 53.6 °F 99% 29.93 in 4.0 mi Calm Calm - N/A   Overcast
10:35 AM 53.6 °F 53.2 °F 99% 29.92 in 7.0 mi Calm Calm - N/A   Overcast
10:55 AM 54.0 °F 52.9 °F 96% 29.93 in 10.0 mi Calm Calm - N/A   Overcast
11:16 AM 55.4 °F 53.2 °F 92% 29.92 in 10.0 mi Calm Calm - N/A   Overcast
11:35 AM 58.3 °F 54.0 °F 86% 29.93 in 10.0 mi Calm Calm - N/A   Mostly Cloudy
11:55 AM 58.3 °F 53.4 °F 84% 29.92 in 10.0 mi NW 3.5 mph - N/A   Scattered Clouds
12:16 PM 58.3 °F 53.1 °F 83% 29.93 in 10.0 mi WNW 5.8 mph - N/A   Mostly Cloudy
12:35 PM 58.3 °F 52.9 °F 82% 29.93 in 10.0 mi WNW 6.9 mph - N/A   Scattered Clouds
12:55 PM 57.9 °F 52.7 °F 83% 29.94 in 10.0 mi WNW 4.6 mph - N/A   Scattered Clouds
1:15 PM 59.9 °F 53.8 °F 80% 29.94 in 10.0 mi North 3.5 mph - N/A   Scattered Clouds
1:35 PM 59.0 °F 53.2 °F 81% 29.93 in 10.0 mi North 3.5 mph - N/A   Scattered Clouds
1:55 PM 60.8 °F 53.6 °F 77% 29.93 in 10.0 mi Calm Calm - N/A   Scattered Clouds
2:15 PM 58.3 °F 53.6 °F 84% 29.93 in 10.0 mi North 4.6 mph - N/A   Mostly Cloudy
2:35 PM 60.6 °F 53.8 °F 78% 29.93 in 10.0 mi Calm Calm - N/A   Scattered Clouds
2:55 PM 59.2 °F 53.6 °F 82% 29.93 in 10.0 mi NNW 3.5 mph - N/A   Scattered Clouds
3:15 PM 59.9 °F 53.8 °F 80% 29.93 in 10.0 mi Calm Calm - N/A   Mostly Cloudy
3:35 PM 60.4 °F 53.8 °F 79% 29.93 in 10.0 mi Calm Calm - N/A   Mostly Cloudy
3:55 PM 60.8 °F 54.0 °F 78% 29.93 in 10.0 mi Calm Calm - N/A   Mostly Cloudy
4:15 PM 60.3 °F 54.0 °F 80% 29.93 in 10.0 mi NW 3.5 mph - N/A   Overcast
4:36 PM 59.0 °F 53.6 °F 82% 29.93 in 10.0 mi North 3.5 mph - N/A   Scattered Clouds
4:55 PM 59.4 °F 53.6 °F 81% 29.92 in 10.0 mi Calm Calm - N/A   Clear
5:15 PM 59.4 °F 54.0 °F 82% 29.93 in 10.0 mi Calm Calm - N/A   Clear
5:36 PM 59.0 °F 53.2 °F 81% 29.93 in 10.0 mi Calm Calm - N/A   Clear
5:55 PM 60.1 °F 53.6 °F 79% 29.93 in 10.0 mi North 3.5 mph - N/A   Clear
6:15 PM 59.9 °F 53.6 °F 80% 29.93 in 10.0 mi Calm Calm - N/A   Clear
6:35 PM 58.6 °F 53.1 °F 82% 29.93 in 10.0 mi Calm Calm - N/A   Clear
7:10 PM 55.0 °F 52.5 °F 91% 29.94 in 10.0 mi Calm Calm - N/A   Clear
11:27 PM 45.0 °F 45.0 °F 100% 29.99 in 1.5 mi Calm Calm - N/A   Mist
11:35 PM 45.3 °F 45.3 °F 100% 29.99 in 0.8 mi Calm Calm - N/A   Mist
11:55 PM 44.1 °F 44.1 °F 100% 29.99 in 0.8 mi Calm Calm - N/A   Mist